Location: *
(49.6619°S, 177.4603°W)
Time: 05:55:32
(UTC+00:00)

Terra - Pass Details

Date: 31 January 2023
Orbit: 695 x 696 km, 98.1° (Epoch: 01 April)

Event Time Altitude Azimuth Distance (km) Brightness Sun altitude
Rises 08:44:52 0° 146° (SSE) 3,121 5.3 -9.9°
Reaches altitude 10° 08:49:48 10° 102° (ESE) 2,188 4.0 -10.5°
Maximum altitude 08:50:16 10° 96° (E) 2,178 4.0 -10.6°
Drops below altitude 10° 08:50:44 10° 90° (E) 2,185 3.9 -10.6°
Enters shadow 08:51:37 - 80° (E) 2,246 3.9 -10.7°
